Location: Chervonnoye
(48.6000°N, 34.4000°E)
Time: 07:51:27
(UTC+00:00)

NOAA 15 - Pass Details

Date: 29 November 2021
Orbit: 797 x 812 km, 98.7° (Epoch: 26 January)

Event Time Altitude Azimuth Distance (km) Brightness Sun altitude
Rises 16:12:47 0° 158° (SSE) 3,319 7.7 -22.8°
Reaches altitude 10° 16:15:07 10° 157° (SSE) 2,390 6.9 -23.2°
Maximum altitude 16:20:23 76° 73° (ENE) 837 4.4 -24.1°
Drops below altitude 10° 16:25:41 10° 348° (NNW) 2,399 7.1 -24.9°
Sets 16:28:02 0° 347° (NNW) 3,332 7.9 -25.3°
